Simultaneous Nadir Overpasses (SNOs) Predictions

Prediction of SNOs between NPP and GCOM-C Satellite Orbit:

Table of predicted SNOs for the next 14.0 days since TLE Epoch: 1/6/2024
Index Date (NPP) Time (NPP) Lat,Lon (NPP) SZA (NPP ) Date (GCOM-C) Time (GCOM-C) Lat,Lon (GCOM-C) SZA (GCOM-C ) Distance(km) Time Diff (sec)
1 01/11/2024 04:57:34 -69.32, -76.89 88.86 01/11/2024 04:58:44 -69.25, -75.30 88.96 62.81 70
2 01/11/2024 05:48:09 68.72, 91.24 90.53 01/11/2024 05:49:21 68.71, 91.36 90.50 4.95 72
3 01/11/2024 06:38:51 -68.63,-101.32 89.58 01/11/2024 06:39:52 -68.65,-101.34 89.56 3.01 61
4 01/11/2024 07:29:37 68.62, 66.00 90.41 01/11/2024 07:30:20 68.59, 65.97 90.38 3.09 43
5 01/11/2024 08:20:20 -68.58,-126.63 89.65 01/11/2024 08:20:50 -68.59,-126.66 89.64 2.07 30
6 01/11/2024 09:11:06 68.57, 40.69 90.35 01/11/2024 09:11:17 68.58, 40.72 90.36 2.11 11
7 01/11/2024 10:01:49 -68.53,-151.93 89.71 01/11/2024 10:01:48 -68.53,-151.98 89.71 1.91 1
8 01/11/2024 10:52:35 68.52, 15.39 90.28 01/11/2024 10:52:15 68.52, 15.40 90.29 0.72 20
9 01/11/2024 11:43:18 -68.48,-177.24 89.77 01/11/2024 11:42:46 -68.46,-177.30 89.78 2.68 32
10 01/11/2024 12:34:04 68.47, -9.92 90.22 01/11/2024 12:33:13 68.46, -9.92 90.22 1.00 51
11 01/11/2024 13:24:47 -68.43, 157.45 89.83 01/11/2024 13:23:43 -68.45, 157.45 89.80 3.22 64
12 01/11/2024 14:15:28 68.15, -34.89 89.88 01/11/2024 14:14:15 68.18, -35.51 89.93 26.06 73
13 01/11/2024 15:06:03 -67.68, 133.02 90.61 01/11/2024 15:04:54 -67.69, 131.26 90.56 73.95 69



Historial Predications of SNOs between NPP and GCOM-C
